Location: Elko Observing site
(32.3606°N, 83.7235°W)
Time: 06:51:16
(UTC-04:00)

N. Korean satellite - Pass Details

Date: 23 March 2019
Orbit: 457 x 508 km, 97.2° (Epoch: 23 April)

Event Time Altitude Azimuth Distance (km) Brightness Sun altitude
Rises 06:35:27 0° 40° (NE) 2,534 11.1 -13.4°
Reaches altitude 10° 06:39:16 10° 83° (E) 1,665 10.8 -12.6°
Maximum altitude 06:39:56 10° 94° (E) 1,642 10.6 -12.4°
Drops below altitude 10° 06:40:35 10° 104° (ESE) 1,668 10.4 -12.3°
Sets 06:44:26 0° 147° (SSE) 2,558 10.6 -11.5°
